Location: Charbonni�res
(45.9952°N, 2.9982°E)
Time: 17:39:36
(UTC+00:00)

NOSS 3-4 (C) - Pass Details

Date: 29 November 2020
Orbit: 879 x 1333 km, 63.4° (Epoch: 31 December)

Event Time Altitude Azimuth Distance (km) Brightness Sun altitude
Exits shadow 05:48:25 17° 272° (W) 2,130 4.7 -13.3°
Maximum altitude 05:52:16 33° 327° (NNW) 1,532 4.2 -12.7°
Drops below altitude 10° 05:58:02 10° 30° (NNE) 2,785 6.0 -11.7°
Sets 06:01:04 0° 40° (NE) 3,811 6.9 -11.2°
